www.pogodaiklimat.ru

Погода и климат >> Архив погоды >> Аргентина >> Villa Reynolds


ПОГОДА в Villa Reynolds

  • Прогноз погоды в Villa Reynolds
  • Монитор погоды в Villa Reynolds
  • Климат города

АРХИВ ПОГОДЫ в Villa Reynolds

Время (UTC), дата Ветер
(напр.,м/с)
 
Видим.   Явления Облачность Т
(С)
Тd
(С)
f
(%)
Тe
(С)
Тes
(С)
Комфортность P
(гПа)
Po
(гПа)
Тmin
(С)
Tmax
(С)
R
(мм)
R24
(мм)
S
(см)
18 16.10 штиль 0 15 км 4/1 1200 м
[Sc Ac As]
+31.8 +10.1 26 +31 +46 жарко 1003.9 949.7
21 16.10 СВ 8 15 км 3/0
[Ac As]
+29.2 +12.3 35 +30 +31 жарко 1003.5 949.0
00 17.10 В 3 15 км 3/0
[Ac As]
+22.0 +11.8 52 +24 +24 комфорт 1006.4 951.6 +12.2 +32.6
03 17.10 СВ 3 15 км 4/0
[Ac As Ci sp]
+19.2 +12.7 66 +21 +21 комфорт 1006.1 951.7
06 17.10 СВ 3 15 км 3/0
[Ac As Ci sp]
+18.2 +12.7 70 +19 +19 1004.6 950.5
09 17.10 ЮЗ 3 15 км 3/0
[Ci sp]
+15.0 +11.8 81 +14 +14 1008.0 953.2
12 17.10 СЗ 1 15 км 3/0
[Ac As Ci sp]
+20.0 +13.2 65 +23 +28 комфорт 1009.4 954.4 +12.6 +22.1
15 17.10 СЗ 1 15 км ясно +27.2 +14.2 45 +29 +49 жарко 1007.7 953.2
18 17.10 ЮВ 3 15 км 1/1 1050 м
[Cu hum]
+32.2 +10.2 26 +32 +44 жарко 1005.8 951.7
21 17.10 В 4 15 км 4/0
[Cs]
+30.5 +9.5 27 +30 +32 жарко 1004.8 950.2
00 18.10 С 8 15 км 4/0
[Cs]
+22.8 +15.7 64 +27 +27 душно 1005.8 951.0 +20.0 +33.6
03 18.10 СВ 3 15 км зарница 8/4 750 м
[Cb cap Cs]
+21.0 +17.9 82 +26 +26 душно 1005.6 951.3
06 18.10 СВ 3 15 км 8/4 750 м
[Cb cap Cs]
+18.0 +16.4 90 +18 +18 1004.5 949.6
09 18.10 штиль 0 15 км 8/1 750 м
[Sc Ac As Cs]
+14.0 +12.9 93 +14 +14 1002.1 947.7
12 18.10 ЮЗ 3 15 км 8/0
[Ac As Cs]
+20.6 +15.4 72 +24 +27 комфорт 1003.4 948.8 +13.8 +24.1
15 18.10 Ю 8 15 км 5/4 750 м
[Cb calv Ac As Ci sp]
+26.2 +18.9 64 +31 +33 очень
душно
1004.5 950.2
18 18.10 Ю 9 10 км 9/6 750 м
[Sc Ac As]
+22.6 +14.9 62 +26 +27 жарко 1007.6 952.5
21 18.10 Ю 8 10 км 4/1 750 м
[Sc Ac As]
+22.6 +7.8 39 +24 +24 комфорт 1011.0 955.4
00 19.10 штиль 0 10 км 1/0
[Ac As]
+15.2 +6.5 56 +15 +15 1015.0 959.0 +15.2 +27.3
03 19.10 штиль 0 10 км ясно +11.0 +4.6 65 +11 +11 1018.8 962.8
06 19.10 штиль 0 10 км ясно +8.0 +2.5 68 +7 +7 1019.1 962.5
09 19.10 штиль 0 10 км ясно +2.0 -2.2 74 +1 +1 1019.8 962.6
12 19.10 штиль 0 15 км 1/0
[Cs]
+12.3 +5.2 62 +12 +18 1021.9 964.8 +1.8 +15.3
15 19.10 С 3 15 км 1/0
[Ci fib]
+22.2 +3.3 29 +22 +37 комфорт 1019.3 962.9
18 19.10 СВ 9 15 км 3/0
[Ci sp]
+26.4 +4.6 25 +26 +27 жарко 1013.9 957.9
21 19.10 СВ 8 15 км 3/0
[Ci sp]
+26.6 +4.4 24 +26 +26 жарко 1010.4 954.1
00 20.10 С 4 15 км 1/0
[Ci fib]
+18.2 +6.0 45 +18 +18 1010.7 954.5 +12.3 +28.9
03 20.10 С 5 10 км 1/0
[Ci fib]
+13.6 +5.6 58 +12 +12 1009.7 954.1
06 20.10 С 3 10 км ясно +11.3 +3.9 60 +10 +10 1007.2 951.8
09 20.10 С 4 10 км ясно +9.9 +3.5 64 +7 +7 1006.5 951.0
12 20.10 штиль 0 15 км 5/0
[Ac As Cs]
+19.8 +5.2 38 +20 +25 1007.3 952.0 +8.8 +19.8
15 20.10 Ю 6 15 км 5/0
[Ac As Cs]
+27.2 +10.8 36 +28 +33 жарко 1007.6 952.9
18 20.10 ЮВ 7 15 км 5/0
[Ac As Cs]
+26.0 +11.8 41 +27 +32 жарко 1007.7 952.2
21 20.10 ЮВ 8 10 км 4/0
[Cs]
+21.6 +6.3 37 +22 +23 комфорт 1010.0 954.0
03 21.10 СЗ 3 10 км 4/0
[Ac As]
+9.2 +5.1 76 +7 +7 1016.9 960.9
06 21.10 СЗ 4 10 км 5/1 1200 м
[Sc Ac As]
+7.2 +5.0 86 +4 +4 1018.3 962.0
09 21.10 СЗ 1 10 км 8/0
[Ac As]
+7.2 +4.5 83 +6 +6 1019.5 962.6
12 21.10 ЮЗ 1 10 км 5/0
[Ac As]
+10.5 +5.2 70 +10 +14 1022.9 965.4 +6.0 +14.1
15 21.10 Ю 4 15 км ясно +18.2 +1.4 32 1023.5
18 21.10 Ю 7 15 км ясно +22.1 +4.0 31 1022.4
21 21.10 Ю 7 15 км ясно +20.6 +2.7 31 1022.6
00 22.10 Ю 3 10 км ясно +12.5 +4.7 59 +11 +11 1025.6 967.8 +10.5 +22.5
03 22.10 Ю 3 10 км ясно +7.6 +1.4 65 +5 +5 1028.3 970.6
06 22.10 Ю 3 10 км ясно +5.8 +0.9 71 +3 +3 1026.1 968.8
09 22.10 штиль 0 10 км ясно +3.0 -0.7 77 +2 +2 1025.2 967.6
12 22.10 ЮВ 7 10 км ясно +15.0 +1.8 41 +13 +15 1023.6 966.4 +1.2 +15.0
15 22.10 СВ 7 10 км 9/0
[Cs]
+22.0 +4.1 31 +22 +27 комфорт 1021.2 964.4
18 22.10 СВ 9 10 км 9/0
[Ci sp]
+25.9 +5.2 26 +25 +26 комфорт 1016.5 960.1
21 22.10 СВ 12 8000 м пыльный позёмок 9/0
[Ac As Cc]
+24.9 +5.6 29 +25 +25 комфорт 1014.3 957.7
00 23.10 СВ 7 10 км 9/0
[Ac As Ci sp]
+18.5 +5.1 41 +18 +18 1015.0 958.9 +14.7 +26.6
03 23.10 С 3 15 км 6/0
[Ac As Ci sp]
+13.0 +4.1 55 +12 +12 1015.0 959.0
06 23.10 С 4 15 км 4/0
[Ac As Ci sp]
+16.6 +4.8 46 +16 +16 1012.6 957.4
09 23.10 С 4 15 км 1/0
[Ac As]
+16.0 +2.2 39 +15 +15 1012.6 957.3
12 23.10 С 7 15 км 3/0
[Ac As Ci sp]
+21.0 +4.3 33 +21 +23 комфорт 1013.3 957.8 +12.0 +21.1
15 23.10 С 4 15 км 4/0
[Cs]
+26.4 +7.2 29 +26 +37 жарко 1012.0 956.6

 

Местоположение метеостанции Villa Reynolds (Аргентина): широта -33.73 долгота -65.38 высота над уровнем моря 486 м.

В архиве по умолчанию представлена погода в Villa Reynolds за последнюю неделю. Архивные данные за месяц целиком и за предыдущие месяцы, начиная с января 2011 года, Вы можете получить, выбрав интересующий диапазон дат из раскрывающегося списка и нажав кнопку "Ввод!".

Внимание! Время в таблицах - всемирное. Для получения местного времени необходимо прибавить поправку, которая в Villa Reynolds равна -3 ч.

Смотрите также архив погоды в соседних городах и на ближайших метеорологических станциях:

Погода в San Luis (Аргентина) (104 км)
Погода в Rio Cuarto (Аргентина) (125 км)
Погода в Laboulaye (Аргентина) (192 км)
Погода в Villa Dolores (Аргентина) (199 км)
Погода в General Pico (Аргентина) (265 км)
Погода в Pilar (Аргентина) (270 км)
Погода в San Martin (Аргентина) (290 км)
Погода в Cordoba (Аргентина) (291 км)
Погода в San Rafael (Аргентина) (294 км)
Погода в Marcos Juarez (Аргентина) (322 км)

Пояснения к столбцам:

Ветер - указаны скорость ветра в м/с - средняя за 10 мин, порывы в срок и между сроками (в фигурных скобках) и направление, откуда дует ветер: С - северный, СВ - северо-восточный, В - восточный, ЮВ - юго-восточный, Ю - южный, ЮЗ - юго-западный, З - западный, СЗ - северо-западный.
Видимость - горизонтальная дальность видимости в метрах или километрах. При видимости от 1 до 10 км при отсутствии осадков обычно наблюдается дымка, при ухудшении видимости до 1 км и менее - туман. В сухую погоду видимость может ухудшаться дымом, пылью или мглою.
Явления - указаны атмосферные явления, наблюдавшиеся в срок или в последний час перед сроком; фигурными скобками обозначены явления, наблюдавшиеся между сроками (за 1-3 часа до срока); квадратными скобками обозначены град или гололедные отложения с указанием их диаметра в мм.
Облачность - указаны через наклонную черту общая и нижняя облачность в баллах и высота нижней границы облаков в метрах; квадратными скобками обозначены формы облаков: Ci - перистые, Cs - перисто-слоистые, Cc - перисто-кучевые, Ac - высококучевые, As - высокослоистые, Sc - слоисто-кучевые, Ns - слоисто-дождевые, Cu - кучевые, Cb - кучево-дождевые. Подробнее классификацию облаков см. в Атласе облаков (PDF).
T - Температура воздуха - температура, измеренная на высоте 2 м над землей.
Td - Температура точки росы - температура, при понижении до которой содержащийся в воздухе водяной пар достигнет насыщения.
f - Относительная влажность воздуха - влажноcть воздуха, измеренная на высоте 2 м над землей.
Te - Эффективная температура - температура, которую ощущает одетый по сезону человек в тени. Характеристика душности погоды. При расчете учитывается влияние влажности воздуха и скорости ветра на теплоощущения человека.
Tes - Эффективная температура на солнце - температура, которую ощущает человек, с поправкой на солнечный нагрев. Характеристика знойности погоды. Зависит от высоты солнца над горизонтом, облачности и скорости ветра. Ночью, в пасмурную погоду, а также при ветре 12 м/с и более поправка равна нулю.
P - Атмосферное давление - приведенное к уровню моря атмосферное давление.
Po - Атмосферное давление - измеренное на уровне метеостанции атмосферное давление.
Tmin - Минимальная температура - минимум температуры воздуха на высоте 2 м над землей.
Tmax - Максимальная температура - максимум температуры воздуха на высоте 2 м над землей.
R - Количество осадков - Количество выпавших осадков за период времени, мм. При наведении курсора мыши на число - период времени, за который выпало указанное количество осадков.
R24 - Количество осадков - Количество выпавших осадков за 24 часа, мм.
S - Снежный покров - Высота снежного покрова, см. При наведении курсора мыши на число - состояние снежного покрова и степень покрытия местности в баллах.